SCP
0 0 0 0 0 0 0 0 0 0 0 0 0 0 0 0 0 0 0 0 0 0 -0 -0 -0 0 0 0 0 -0 -0 0 0 0 0 0 0 0 0 0 0 0 0 0 0 0 0 0 0 0 0 0 0 0
0 0 0 0 0 0 0 0 0 0 0 0 0 0 0 0 0 0 0 0 0 0 0 -0 0 -0 0 0 0 0 0 0 0 0 0 0 0 0 0 0 0 0 0 0 0 0 0 0 0 0 0 0 0 0
0 0 0 0 0 0 0 0 0 0 -0 0 -0 -0 -0 0 0 0 0 -0 -0 -0 0 -0 0 0 -0 0 0 0 0 0 0 0 0 0 0 0 0 0 0 0 0 0 0 0 0 0 0 0 0 0 0 0
0 0 0 0 0 0 0 0 0 0 0 0 -0 -0 -0 0 0 0 0 -0 0 -0 0 -0 0 0 0 0 0 -0 0 0 0 0 0 0 0 0 0 0 0 0 0 0 0 0 0 0 0 0 0 0 0 0
0 0 0 0 0 0 0 0 -0 -0 -0 0 -0 -0 -0 0 0 0 0 -0 0 0 0 0 0 -0 -0 0 0 -0 0 0 0 0 0 0 0 0 0 0 0 0 0 0 0 0 0 0 0 0 0 0 0 0
0 0 0 0 0 0 0 0 -0 -0 -0 -0 -0 -0 0 0 0 0 0 0 0 0 0 0 0 0 0 0 0 0 0 0 0 0 0 0 0 0 0 0 0 0 0 0 0 0 0 -0 0 0 0 0 0 0
0 0 0 0 0 0 0 0 -0 -0 -0 -0 -0 -0 0 -0 -0 0 0 0 0 0 0 0 0 0 0 0 0 0 0 0 0 0 0 0 0 0 0 0 0 0 0 0 0 0 0 -0 0 -0 0 0 0 0
0 0 0 0 0 0 0 -0 -0 -0 -0 -0 -0 -0 -0 0 0 0 0 0 0 0 0 0 0 0 0 0 0 0 0 0 0 0 0 0 0 0 0 0 0 0 0 0 0 0 0 -0 -0 -0 -0 0 0 0
0 0 0 0 0 0 -0 -0 -0 -0 -0 -0 -0 -0 -0 0 0 0 -0 0 0 0 0 0 0 0 0 0 0 0 0 0 0 0 0 0 0 0 0 0 0 0 0 0 0 -0 -0 -0 -0 -0 -0 0 0 -0
0 0 0 0 0 -0 -0 -0 -0 -0 -0 -0 -0 0 0 0 0 0 0 0 0 0 0 0 0 0 0 0 0 0 0 0 0 0 0 0 0 0 0 0 0 0 0 0 -0 -0 -0 -0 -0 -0 0 0 -0 0
0 0 0 0 -0 -0 -0 -0 -0 -0 -0 -0 0 0 0 0 0 0 0 0 0 0 0 0 0 0 0 0 0 0 0 0 0 0 0 0 0 0 0 -0 0 0 0 0 0 0 0 -0 -0 0 0 -0 -0 0
0 0 0 -0 -0 -0 -0 -0 0 -0 0 0 0 0 0 0 0 0 0 0 0 0 0 0 0 0 0 0 0 -0 0 0 0 0 0 0 0 0 0 0 0 0 0 0 -0 -0 -0 -0 -0 0 0 0 0 0
-0 -0 -0 -0 -0 -0 -0 -0 0 0 0 0 0 0 0 0 0 0 0 0 0 0 0 0 0 0 0 0 0 0 0 0 0 0 0 0 0 0 0 -0 -0 0 0 -0 -0 -0 -0 -0 -0 -0 0 0 0 -0
-0 -0 -0 -0 -0 -0 0 0 0 0 0 0 0 0 0 0 0 0 0 0 0 0 -0 0 0 0 0 0 0 -0 0 0 0 0 0 0 0 -0 -0 -0 -0 -0 -0 -0 -0 -0 -0 -0 -0 0 0 0 0 -0
-0 -0 -0 -0 -0 -0 -0 0 0 0 0 0 0 0 0 0 0 0 0 0 0 -0 -0 0 0 0 0 0 0 0 0 0 0 0 0 0 0 -0 -0 -0 -0 0 -0 -0 -0 -0 -0 -0 0 0 0 0 0 -0
-0 -0 0 -0 -0 -0 -0 -0 0 0 0 0 0 0 0 0 0 0 0 0 0 0 0 0 0 0 -0 -0 0 0 0 0 0 0 -0 0 0 -0 -0 -0 -0 -0 -0 -0 0 0 -0 -0 0 0 0 0 0 0
-0 0 -0 -0 -0 -0 -0 0 0 0 0 0 0 0 0 0 0 0 0 0 0 -0 0 0 0 -0 -0 -0 -0 0 0 -0 -0 0 0 0 -0 -0 -0 -0 -0 -0 -0 -0 0 0 -0 0 0 0 0 0 0 0
-0 -0 -0 -0 -0 -0 0 0 0 0 0 0 0 0 0 0 0 0 -0 -0 -0 0 -0 -0 -0 0 0 0 0 0 0 0 -0 0 0 0 -0 0 -0 -0 -0 -0 -0 -0 0 0 0 0 0 0 0 0 0 0
-0 -0 -0 -0 -0 0 0 0 0 0 0 0 0 0 0 0 0 0 -0 -0 -0 -0 -0 -0 0 0 0 0 0 0 0 0 0 0 0 0 0 0 -0 -0 -0 -0 -0 -0 0 0 0 0 0 0 0 0 0 0
-0 -0 -0 -0 0 0 0 0 0 0 0 0 0 0 0 0 0 0 -0 0 0 0 0 -0 0 0 -0 0 0 -0 -0 -0 0 0 0 0 -0 -0 0 0 0 -0 -0 0 0 0 0 0 0 0 0 0 0 0
0 0 -0 0 0 0 0 0 0 0 0 0 0 0 0 0 -0 0 0 -0 0 0 0 -0 0 0 0 0 0 -0 -0 -0 0 -0 0 0 0 0 0 0 -0 0 -0 -0 -0 0 0 0 -0 -0 -0 0 0 0
0 -0 0 0 0 0 0 0 0 0 0 0 0 0 0 0 0 0 -0 0 0 -0 -0 0 0 0 0 0 -0 -0 -0 -0 0 -0 0 0 0 0 0 0 -0 -0 0 0 0 0 -0 -0 -0 -0 0 -0 0 0
-0 0 0 0 0 0 0 0 0 0 0 0 0 0 0 0 0 0 -0 -0 -0 -0 -0 0 0 0 0 -0 -0 -0 -0 -0 -0 0 -0 0 0 0 0 0 -0 0 0 0 0 -0 -0 -0 0 0 -0 0 0 0
-0 0 0 0 0 0 0 0 0 0 0 0 0 0 0 0 0 -0 0 -0 -0 -0 -0 -0 -0 0 0 0 -0 -0 -0 -0 -0 -0 0 0 0 0 0 0 -0 -0 -0 -0 -0 -0 -0 -0 -0 -0 0 0 0 0
0 0 0 0 0 0 0 0 0 0 0 0 0 0 -0 -0 0 -0 -0 0 0 -0 -0 -0 0 0 0 0 0 0 -0 -0 -0 -0 0 0 -0 0 0 0 0 -0 -0 -0 -0 -0 -0 -0 -0 0 0 0 0 0
0 0 0 0 0 0 0 0 0 0 0 0 0 0 0 -0 -0 0 0 0 -0 -0 0 0 0 0 0 0 0 0 0 -0 -0 -0 0 0 -0 -0 -0 -0 -0 -0 -0 -0 -0 -0 -0 -0 -0 0 0 0 0 0
0 0 0 0 0 0 0 0 0 0 0 0 0 0 0 0 0 0 -0 -0 -0 -0 -0 0 0 0 0 0 0 0 0 0 0 0 0 0 0 0 0 0 -0 -0 0 -0 -0 -0 -0 -0 0 0 0 0 0 0
0 0 0 0 0 0 0 0 0 0 0 -0 0 0 0 0 -0 0 -0 -0 -0 -0 0 0 0 0 -0 -0 -0 0 0 -0 -0 0 0 0 0 0 0 0 0 -0 0 -0 -0 -0 0 0 0 0 0 0 0 0
0 0 0 0 0 0 0 0 0 0 0 0 0 0 -0 0 -0 -0 -0 -0 -0 0 0 0 0 0 0 0 0 -0 -0 -0 -0 -0 -0 0 0 0 0 0 0 0 -0 -0 0 0 0 0 0 0 0 0 0 0
0 0 0 0 0 0 0 0 0 0 -0 0 0 0 -0 -0 0 -0 -0 -0 -0 0 0 0 0 0 0 0 -0 -0 0 0 0 -0 -0 -0 -0 -0 0 -0 -0 -0 -0 -0 -0 -0 0 0 0 0 0 0 0 0
0 0 0 0 0 0 0 0 0 0 0 0 0 0 0 0 -0 -0 -0 -0 0 0 0 0 0 0 0 0 0 -0 -0 0 -0 -0 0 -0 -0 -0 -0 -0 -0 -0 -0 -0 -0 0 0 0 0 0 0 0 0 0
-0 -0 0 0 0 0 0 0 0 0 0 0 0 0 -0 -0 -0 0 0 0 0 0 0 0 0 0 0 0 0 0 0 0 -0 -0 -0 -0 -0 -0 -0 -0 -0 -0 -0 0 0 0 0 0 0 0 0 0 0 0
-0 -0 -0 -0 -0 0 0 -0 -0 -0 0 0 0 0 -0 -0 -0 0 0 0 0 0 0 0 0 0 0 0 0 0 0 0 0 0 0 0 0 0 0 0 0 0 0 0 0 0 0 0 0 0 0 0 0 0
Wind_Speed_500mb
55 56 55 54 52 58 59 49 44 50 52 48 46 43 38 35 32 30 36 29 18 9 28 29 15 14 16 11 5 10 7 12 8 6 4 4 4 5 5 20 18 14 16 14 10 15 12 10 11 10 18 26 24 21
54 54 52 53 57 62 52 45 47 51 48 46 45 43 40 37 27 25 35 16 19 18 18 26 25 21 24 17 14 2 9 1 7 2 2 1 4 6 4 9 7 10 8 10 13 5 12 8 18 18 18 26 21 20
56 53 52 53 58 52 46 50 48 46 46 50 45 45 41 40 24 23 33 26 25 14 21 12 8 10 8 16 21 10 4 2 2 5 5 3 4 3 5 5 8 2 6 5 11 14 14 23 28 29 27 27 23 21
53 52 53 55 58 44 48 51 48 51 52 51 49 45 40 39 28 25 26 25 24 7 7 2 8 6 8 8 11 24 6 3 4 3 3 0 4 4 3 3 4 5 11 6 5 14 20 22 29 32 30 28 22 22
48 52 56 57 47 46 49 49 53 56 58 54 57 43 34 34 28 24 27 19 17 5 4 11 11 7 5 4 6 16 9 5 5 5 4 2 3 4 3 5 11 15 10 7 5 15 10 31 27 24 32 28 23 22
52 52 48 43 49 51 53 55 57 55 47 51 34 23 21 21 21 17 7 8 18 16 6 4 6 4 8 14 16 16 13 6 3 2 3 4 4 5 1 6 5 14 19 27 7 12 7 29 34 29 32 26 22 21
50 45 49 53 54 54 56 56 52 49 44 40 21 25 26 20 16 13 8 10 5 22 5 4 3 3 15 15 9 11 10 6 3 2 3 4 5 6 4 7 4 10 19 21 12 20 27 35 35 33 32 27 26 24
46 51 54 54 56 56 53 50 45 39 43 34 22 19 16 16 13 15 14 8 6 8 6 3 2 2 13 5 5 6 5 5 5 3 4 3 3 9 8 13 15 9 10 19 27 12 28 33 38 34 30 27 26 24
49 55 57 54 56 53 52 44 39 34 34 24 21 23 17 7 6 4 9 12 1 5 3 3 2 3 10 6 7 4 1 3 4 2 2 2 5 10 5 7 20 21 17 27 26 31 39 39 36 32 26 23 24 22
52 58 60 54 54 49 48 37 34 34 24 20 25 4 4 1 5 15 7 4 3 2 2 3 2 3 3 3 3 6 1 1 3 5 8 7 9 22 10 7 7 28 26 34 37 36 37 35 32 28 24 22 21 18
52 58 57 48 49 45 38 25 24 25 21 7 6 5 5 11 8 3 3 2 3 4 4 1 1 3 5 2 4 4 2 4 4 6 5 4 5 5 10 27 16 29 32 29 23 29 30 32 32 31 29 26 23 20
51 53 44 48 39 37 25 27 20 21 9 5 8 5 6 2 2 2 3 4 5 1 9 6 7 5 4 4 4 6 3 4 2 5 4 5 5 3 13 29 19 36 35 27 33 36 34 32 32 34 31 29 25 21
47 44 36 39 36 29 28 19 24 12 10 7 5 3 2 1 3 5 8 6 4 10 10 13 5 3 6 3 4 3 4 2 5 5 5 4 14 7 29 31 38 39 36 38 41 38 38 39 37 35 34 29 25 21
41 37 29 34 27 26 22 16 16 13 10 6 7 3 4 3 4 3 3 5 8 7 16 18 9 2 5 5 3 6 5 4 5 6 5 10 15 25 31 35 42 39 41 42 42 40 43 42 39 33 30 26 22 20
35 26 23 27 28 21 22 11 13 15 8 5 4 4 2 6 5 6 8 1 7 16 17 11 7 2 3 3 4 4 5 8 7 3 5 14 22 34 38 40 46 49 41 37 39 42 41 39 36 32 27 24 21 20
36 13 18 21 23 22 17 20 18 11 8 4 4 5 8 4 7 8 13 10 11 15 10 5 4 2 4 3 6 8 4 7 1 5 4 22 39 49 41 41 42 43 42 41 39 39 38 34 33 31 27 23 20 19
31 9 23 20 21 22 18 17 9 6 5 6 3 12 9 9 9 8 7 9 17 12 1 3 5 4 4 5 6 6 6 7 9 12 16 42 61 48 36 42 42 41 41 42 41 39 36 34 32 29 27 22 20 20
26 29 15 18 22 23 15 10 7 6 4 6 6 9 5 7 10 4 8 14 11 7 4 2 2 4 5 4 3 4 6 7 3 13 35 55 51 33 37 41 40 40 41 41 39 38 36 33 29 26 24 21 20 19
28 24 6 10 17 13 7 7 6 7 6 8 14 13 6 4 4 4 8 17 2 2 3 5 6 4 2 5 7 16 6 7 17 38 55 37 25 35 41 40 39 39 38 38 37 33 31 25 24 24 21 17 16 15
11 7 1 6 8 5 5 4 6 6 6 10 10 11 9 2 1 5 8 10 7 4 4 4 4 11 8 21 4 1 8 29 58 56 35 21 30 39 41 40 38 37 36 35 32 33 29 27 23 21 19 17 16 14
3 5 1 4 4 4 5 5 5 5 10 9 10 14 8 4 4 7 5 10 5 5 4 6 11 14 14 16 8 16 23 44 44 49 44 40 35 37 38 37 37 33 33 32 31 29 26 23 23 21 20 16 15 14
6 4 7 5 4 3 6 7 7 9 5 9 12 7 9 6 7 4 1 6 5 4 4 11 12 13 6 8 17 19 25 42 30 33 34 38 33 34 37 37 34 33 28 26 26 26 23 22 21 21 19 17 15 13
3 5 3 3 4 3 5 6 5 5 5 4 5 6 3 2 2 4 5 6 5 3 5 7 4 7 8 15 23 24 26 31 36 35 35 30 28 32 35 33 32 32 28 24 24 24 23 25 26 21 20 17 13 11
5 4 3 4 5 5 6 5 6 6 5 6 3 2 5 4 4 3 5 4 3 5 7 5 8 3 10 20 25 25 26 29 34 32 28 32 32 31 32 30 27 24 24 26 25 25 25 24 24 20 18 15 12 10
3 4 5 7 6 6 6 2 3 5 4 3 5 4 4 4 3 4 3 5 21 12 9 5 12 12 8 21 23 25 24 27 31 30 29 33 34 33 28 25 23 23 25 26 26 26 24 23 21 19 17 14 12 10
5 6 7 4 4 5 2 3 2 3 4 5 3 1 1 3 5 1 4 8 12 12 5 4 9 13 14 13 21 24 26 26 29 32 32 32 33 33 31 29 26 25 24 21 25 25 24 24 22 21 17 16 15 10
5 5 6 7 6 7 6 6 6 5 6 4 3 3 3 3 2 4 6 9 12 8 10 16 10 14 22 17 21 22 25 27 26 31 32 29 26 22 21 22 25 26 29 27 23 22 23 24 22 19 16 12 11 9
7 6 5 4 5 6 4 3 3 2 5 7 6 3 5 5 4 5 6 9 8 4 16 10 7 7 20 27 22 31 33 33 35 38 36 30 23 20 18 16 22 21 30 30 25 21 21 22 21 19 17 14 11 9
7 7 6 7 7 8 7 7 7 6 4 6 4 3 1 6 6 9 9 8 7 5 13 5 12 8 19 30 28 29 36 36 34 32 29 23 24 25 27 24 29 29 30 32 27 21 21 22 21 19 17 14 12 10
5 7 7 6 6 5 0 4 4 3 6 9 9 12 15 16 17 14 13 12 11 11 10 6 29 12 8 18 24 31 34 28 25 26 28 29 26 30 31 31 31 30 31 29 28 25 21 19 16 15 12 12 11 9
6 5 7 9 7 4 4 10 12 13 13 12 15 18 24 21 22 18 14 13 14 12 8 9 11 20 16 15 21 27 27 26 25 22 20 26 25 29 31 32 32 29 27 25 23 23 22 20 17 15 14 13 10 9
8 11 8 5 5 5 7 5 5 7 9 10 11 8 10 13 10 4 3 7 13 15 13 10 13 17 19 21 18 22 25 29 33 28 23 19 24 28 30 31 32 29 26 25 25 25 25 21 17 14 14 13 10 9
12 15 15 11 4 5 6 5 5 6 6 6 6 5 7 6 6 3 3 4 8 13 12 15 19 21 19 27 33 23 30 40 33 24 23 18 20 30 34 34 32 28 26 26 25 26 24 19 15 13 12 11 10 9
Wind_Direction_500mb
329 329 328 331 333 330 328 324 322 325 320 322 305 307 318 320 322 303 308 306 259 260 277 284 278 286 328 303 339 131 205 209 221 221 227 151 164 125 199 126 161 159 174 195 193 210 241 124 161 242 102 112 117 116
326 325 330 334 331 325 324 327 326 321 319 324 312 303 308 313 318 301 294 310 307 261 264 296 281 283 253 291 321 279 340 15 27 278 253 297 144 186 145 155 161 182 175 171 189 199 91 88 86 97 121 121 114 112
326 326 327 330 328 328 331 329 323 320 315 317 323 308 299 306 309 295 288 302 301 277 284 276 298 219 257 257 244 278 220 342 152 322 332 60 120 228 169 155 144 155 204 203 167 155 137 127 114 108 113 111 108 110
325 328 327 328 326 323 326 322 322 322 319 316 315 308 295 293 299 293 289 287 283 281 279 236 346 170 296 275 234 223 274 207 137 263 298 323 152 323 136 43 240 139 170 138 8 127 131 142 135 121 115 115 115 108
331 329 326 324 324 323 326 322 318 318 314 315 311 301 288 289 298 275 273 286 266 184 300 303 316 23 27 147 152 180 168 143 201 215 229 155 80 243 124 306 241 192 148 162 199 200 195 179 161 143 139 137 130 119
329 333 333 333 326 324 321 320 320 323 317 315 326 315 292 294 295 280 295 241 239 232 276 300 320 26 117 117 114 117 126 141 150 267 60 113 54 262 234 258 260 224 199 157 213 143 127 135 147 147 140 137 132 127
331 329 328 328 328 324 321 321 324 323 318 318 310 315 295 290 275 248 236 339 212 197 243 267 168 135 147 132 114 103 100 74 57 76 353 343 163 232 235 227 139 194 192 193 173 140 128 140 141 141 138 134 127 125
329 325 328 327 328 329 326 324 323 326 329 331 318 305 301 291 256 263 269 229 109 180 234 249 125 176 156 97 98 70 67 50 7 354 176 209 162 229 253 219 179 123 149 168 168 181 153 142 140 139 137 135 131 130
326 327 328 325 327 326 328 325 324 321 326 314 316 310 291 252 227 247 184 172 126 176 277 262 274 124 132 86 102 79 101 157 130 179 225 240 224 227 244 203 197 189 157 149 140 129 137 141 139 140 140 144 142 138
328 328 330 329 327 325 323 313 320 320 329 316 315 311 255 189 179 135 124 122 118 175 190 284 326 91 112 135 112 136 229 279 204 199 175 231 244 254 232 186 157 175 156 148 139 143 142 142 142 141 141 142 141 139
328 333 336 341 341 332 327 336 329 335 331 356 338 333 59 144 128 86 99 186 135 193 195 187 291 123 85 89 99 96 212 178 255 144 237 229 246 168 200 191 169 168 156 156 148 146 148 146 143 139 136 133 127 121
333 337 345 352 345 343 347 336 324 329 334 347 326 334 121 91 88 214 115 125 232 74 146 168 120 85 111 120 118 196 243 214 282 116 265 244 195 80 171 168 163 158 149 145 142 138 137 136 136 135 132 127 122 115
333 341 343 353 343 348 348 353 352 359 339 332 353 11 322 42 195 243 169 147 210 170 162 157 114 134 144 172 81 246 234 287 173 226 237 235 75 143 148 139 135 140 138 135 134 131 131 130 130 131 128 123 118 109
331 339 346 357 350 359 2 353 0 2 356 350 343 331 318 169 244 325 55 46 79 119 146 149 123 192 84 155 121 227 182 264 249 231 200 96 129 136 141 139 139 139 139 135 131 134 132 131 129 128 124 120 115 104
328 325 350 2 359 350 355 347 342 348 331 335 331 318 263 322 298 279 273 212 96 135 131 124 103 70 123 172 232 276 220 238 220 286 59 97 135 145 140 137 131 123 131 135 138 137 135 134 133 128 124 118 110 103
329 317 354 350 349 357 345 338 343 338 327 301 295 296 323 285 234 212 137 120 141 146 123 106 102 214 184 212 210 214 241 240 52 353 15 146 140 130 132 137 138 139 142 142 140 139 138 136 137 132 124 114 106 105
333 310 318 337 329 342 339 340 328 321 306 305 329 304 290 283 297 328 72 123 155 149 144 173 220 193 114 215 219 217 253 33 354 326 169 153 142 135 137 133 135 137 138 135 133 132 135 139 136 130 123 115 105 105
313 313 307 320 332 333 342 354 340 316 306 300 309 311 320 268 303 98 119 145 154 202 212 241 150 203 237 247 220 332 320 329 83 158 141 141 131 137 138 134 135 137 136 134 136 136 136 137 135 134 129 122 110 108
321 324 300 321 329 335 324 328 354 321 307 336 327 343 338 322 11 66 108 167 151 215 247 241 252 259 323 321 273 270 279 139 132 131 133 129 138 144 141 136 137 140 141 141 140 141 142 141 142 139 136 127 122 121
314 336 334 320 332 318 306 286 327 305 309 334 319 332 322 312 207 112 148 178 200 216 239 238 250 338 357 313 311 314 123 140 137 132 137 135 143 146 143 141 139 140 140 140 143 142 140 137 137 137 139 133 120 113
277 316 261 336 314 287 285 307 273 279 312 305 312 318 296 307 231 172 209 236 251 246 241 254 302 337 311 345 90 113 136 148 146 146 143 141 141 142 144 145 140 142 142 143 143 147 145 147 146 143 128 128 122 121
322 3 344 331 292 278 269 257 271 300 266 283 302 272 260 314 334 30 34 232 250 253 323 326 338 356 17 97 125 125 141 152 135 147 144 143 139 144 146 150 149 147 144 145 149 148 148 146 146 145 144 135 122 119
338 335 301 295 284 261 266 270 267 252 261 252 231 261 152 258 293 297 243 221 279 9 346 314 351 1 54 126 134 127 132 142 146 150 148 148 145 146 149 151 152 149 144 143 149 149 148 156 150 149 148 138 137 122
338 290 270 252 239 278 291 259 244 258 272 264 253 266 325 343 312 267 293 267 10 321 319 264 173 278 105 138 144 142 143 145 144 149 152 151 147 148 149 150 153 155 155 148 149 151 147 153 159 150 151 148 145 142
278 230 233 248 230 242 252 231 278 252 265 275 269 200 178 197 278 251 288 40 331 321 311 217 182 163 126 141 148 156 156 157 158 155 157 157 152 150 151 150 149 155 156 154 154 153 156 156 159 160 158 157 158 154
268 202 212 252 204 233 261 272 250 301 287 274 259 337 62 259 250 298 65 352 347 341 319 184 167 165 183 149 156 159 164 163 162 159 159 162 162 163 165 165 166 171 169 165 162 161 161 164 165 162 165 176 178 159
277 259 230 238 262 266 269 253 241 258 257 264 335 275 227 231 274 61 1 357 352 4 94 122 116 160 181 160 157 155 154 155 158 160 154 154 158 165 173 179 183 184 172 168 161 164 167 167 167 167 169 171 174 179
268 276 268 348 284 277 281 287 260 258 323 329 299 344 327 335 352 351 315 317 346 38 171 158 54 99 163 167 161 162 160 159 157 159 162 166 175 180 178 167 170 176 173 169 165 162 163 166 169 172 174 175 182 183
254 263 273 262 238 234 223 210 209 205 221 196 244 233 283 232 295 306 312 272 300 200 170 199 217 46 159 174 168 168 172 168 165 169 174 176 177 171 170 168 168 169 174 178 176 170 164 163 164 166 167 171 178 175
258 215 262 254 239 234 217 251 310 269 250 270 285 286 289 292 291 288 268 261 246 243 219 176 201 189 142 169 176 180 182 178 184 190 188 182 180 182 178 178 179 179 181 187 192 189 188 192 188 183 170 164 172 180
271 252 248 238 268 304 298 291 285 280 276 268 264 273 290 301 303 288 248 234 225 220 207 191 190 203 201 186 184 179 180 187 186 182 173 173 185 185 186 186 186 184 186 191 194 190 183 169 168 172 174 181 190 183
226 229 254 249 255 266 301 280 271 270 274 278 277 268 284 296 307 275 274 215 215 216 216 213 214 227 217 203 194 186 184 177 168 160 163 180 200 195 194 189 186 185 188 187 178 174 169 172 177 182 179 182 193 190
263 264 260 270 272 285 247 262 266 277 269 269 265 273 280 293 267 281 302 213 231 229 239 251 240 221 227 203 188 176 171 163 156 167 186 212 214 199 190 186 185 187 186 180 172 169 173 184 193 198 204 208 217 226
Wind_Speed_850mb
55 56 55 54 52 58 59 49 44 50 52 48 46 43 38 35 32 30 36 29 18 9 28 29 15 14 16 11 5 10 7 12 8 6 4 4 4 5 5 20 18 14 16 14 10 15 12 10 11 10 18 26 24 21
54 54 52 53 57 62 52 45 47 51 48 46 45 43 40 37 27 25 35 16 19 18 18 26 25 21 24 17 14 2 9 1 7 2 2 1 4 6 4 9 7 10 8 10 13 5 12 8 18 18 18 26 21 20
56 53 52 53 58 52 46 50 48 46 46 50 45 45 41 40 24 23 33 26 25 14 21 12 8 10 8 16 21 10 4 2 2 5 5 3 4 3 5 5 8 2 6 5 11 14 14 23 28 29 27 27 23 21
53 52 53 55 58 44 48 51 48 51 52 51 49 45 40 39 28 25 26 25 24 7 7 2 8 6 8 8 11 24 6 3 4 3 3 0 4 4 3 3 4 5 11 6 5 14 20 22 29 32 30 28 22 22
48 52 56 57 47 46 49 49 53 56 58 54 57 43 34 34 28 24 27 19 17 5 4 11 11 7 5 4 6 16 9 5 5 5 4 2 3 4 3 5 11 15 10 7 5 15 10 31 27 24 32 28 23 22
52 52 48 43 49 51 53 55 57 55 47 51 34 23 21 21 21 17 7 8 18 16 6 4 6 4 8 14 16 16 13 6 3 2 3 4 4 5 1 6 5 14 19 27 7 12 7 29 34 29 32 26 22 21
50 45 49 53 54 54 56 56 52 49 44 40 21 25 26 20 16 13 8 10 5 22 5 4 3 3 15 15 9 11 10 6 3 2 3 4 5 6 4 7 4 10 19 21 12 20 27 35 35 33 32 27 26 24
46 51 54 54 56 56 53 50 45 39 43 34 22 19 16 16 13 15 14 8 6 8 6 3 2 2 13 5 5 6 5 5 5 3 4 3 3 9 8 13 15 9 10 19 27 12 28 33 38 34 30 27 26 24
49 55 57 54 56 53 52 44 39 34 34 24 21 23 17 7 6 4 9 12 1 5 3 3 2 3 10 6 7 4 1 3 4 2 2 2 5 10 5 7 20 21 17 27 26 31 39 39 36 32 26 23 24 22
52 58 60 54 54 49 48 37 34 34 24 20 25 4 4 1 5 15 7 4 3 2 2 3 2 3 3 3 3 6 1 1 3 5 8 7 9 22 10 7 7 28 26 34 37 36 37 35 32 28 24 22 21 18
52 58 57 48 49 45 38 25 24 25 21 7 6 5 5 11 8 3 3 2 3 4 4 1 1 3 5 2 4 4 2 4 4 6 5 4 5 5 10 27 16 29 32 29 23 29 30 32 32 31 29 26 23 20
51 53 44 48 39 37 25 27 20 21 9 5 8 5 6 2 2 2 3 4 5 1 9 6 7 5 4 4 4 6 3 4 2 5 4 5 5 3 13 29 19 36 35 27 33 36 34 32 32 34 31 29 25 21
47 44 36 39 36 29 28 19 24 12 10 7 5 3 2 1 3 5 8 6 4 10 10 13 5 3 6 3 4 3 4 2 5 5 5 4 14 7 29 31 38 39 36 38 41 38 38 39 37 35 34 29 25 21
41 37 29 34 27 26 22 16 16 13 10 6 7 3 4 3 4 3 3 5 8 7 16 18 9 2 5 5 3 6 5 4 5 6 5 10 15 25 31 35 42 39 41 42 42 40 43 42 39 33 30 26 22 20
35 26 23 27 28 21 22 11 13 15 8 5 4 4 2 6 5 6 8 1 7 16 17 11 7 2 3 3 4 4 5 8 7 3 5 14 22 34 38 40 46 49 41 37 39 42 41 39 36 32 27 24 21 20
36 13 18 21 23 22 17 20 18 11 8 4 4 5 8 4 7 8 13 10 11 15 10 5 4 2 4 3 6 8 4 7 1 5 4 22 39 49 41 41 42 43 42 41 39 39 38 34 33 31 27 23 20 19
31 9 23 20 21 22 18 17 9 6 5 6 3 12 9 9 9 8 7 9 17 12 1 3 5 4 4 5 6 6 6 7 9 12 16 42 61 48 36 42 42 41 41 42 41 39 36 34 32 29 27 22 20 20
26 29 15 18 22 23 15 10 7 6 4 6 6 9 5 7 10 4 8 14 11 7 4 2 2 4 5 4 3 4 6 7 3 13 35 55 51 33 37 41 40 40 41 41 39 38 36 33 29 26 24 21 20 19
28 24 6 10 17 13 7 7 6 7 6 8 14 13 6 4 4 4 8 17 2 2 3 5 6 4 2 5 7 16 6 7 17 38 55 37 25 35 41 40 39 39 38 38 37 33 31 25 24 24 21 17 16 15
11 7 1 6 8 5 5 4 6 6 6 10 10 11 9 2 1 5 8 10 7 4 4 4 4 11 8 21 4 1 8 29 58 56 35 21 30 39 41 40 38 37 36 35 32 33 29 27 23 21 19 17 16 14
3 5 1 4 4 4 5 5 5 5 10 9 10 14 8 4 4 7 5 10 5 5 4 6 11 14 14 16 8 16 23 44 44 49 44 40 35 37 38 37 37 33 33 32 31 29 26 23 23 21 20 16 15 14
6 4 7 5 4 3 6 7 7 9 5 9 12 7 9 6 7 4 1 6 5 4 4 11 12 13 6 8 17 19 25 42 30 33 34 38 33 34 37 37 34 33 28 26 26 26 23 22 21 21 19 17 15 13
3 5 3 3 4 3 5 6 5 5 5 4 5 6 3 2 2 4 5 6 5 3 5 7 4 7 8 15 23 24 26 31 36 35 35 30 28 32 35 33 32 32 28 24 24 24 23 25 26 21 20 17 13 11
5 4 3 4 5 5 6 5 6 6 5 6 3 2 5 4 4 3 5 4 3 5 7 5 8 3 10 20 25 25 26 29 34 32 28 32 32 31 32 30 27 24 24 26 25 25 25 24 24 20 18 15 12 10
3 4 5 7 6 6 6 2 3 5 4 3 5 4 4 4 3 4 3 5 21 12 9 5 12 12 8 21 23 25 24 27 31 30 29 33 34 33 28 25 23 23 25 26 26 26 24 23 21 19 17 14 12 10
5 6 7 4 4 5 2 3 2 3 4 5 3 1 1 3 5 1 4 8 12 12 5 4 9 13 14 13 21 24 26 26 29 32 32 32 33 33 31 29 26 25 24 21 25 25 24 24 22 21 17 16 15 10
5 5 6 7 6 7 6 6 6 5 6 4 3 3 3 3 2 4 6 9 12 8 10 16 10 14 22 17 21 22 25 27 26 31 32 29 26 22 21 22 25 26 29 27 23 22 23 24 22 19 16 12 11 9
7 6 5 4 5 6 4 3 3 2 5 7 6 3 5 5 4 5 6 9 8 4 16 10 7 7 20 27 22 31 33 33 35 38 36 30 23 20 18 16 22 21 30 30 25 21 21 22 21 19 17 14 11 9
7 7 6 7 7 8 7 7 7 6 4 6 4 3 1 6 6 9 9 8 7 5 13 5 12 8 19 30 28 29 36 36 34 32 29 23 24 25 27 24 29 29 30 32 27 21 21 22 21 19 17 14 12 10
5 7 7 6 6 5 0 4 4 3 6 9 9 12 15 16 17 14 13 12 11 11 10 6 29 12 8 18 24 31 34 28 25 26 28 29 26 30 31 31 31 30 31 29 28 25 21 19 16 15 12 12 11 9
6 5 7 9 7 4 4 10 12 13 13 12 15 18 24 21 22 18 14 13 14 12 8 9 11 20 16 15 21 27 27 26 25 22 20 26 25 29 31 32 32 29 27 25 23 23 22 20 17 15 14 13 10 9
8 11 8 5 5 5 7 5 5 7 9 10 11 8 10 13 10 4 3 7 13 15 13 10 13 17 19 21 18 22 25 29 33 28 23 19 24 28 30 31 32 29 26 25 25 25 25 21 17 14 14 13 10 9
12 15 15 11 4 5 6 5 5 6 6 6 6 5 7 6 6 3 3 4 8 13 12 15 19 21 19 27 33 23 30 40 33 24 23 18 20 30 34 34 32 28 26 26 25 26 24 19 15 13 12 11 10 9
Wind_Direction_850mb
329 329 328 331 333 330 328 324 322 325 320 322 305 307 318 320 322 303 308 306 259 260 277 284 278 286 328 303 339 131 205 209 221 221 227 151 164 125 199 126 161 159 174 195 193 210 241 124 161 242 102 112 117 116
326 325 330 334 331 325 324 327 326 321 319 324 312 303 308 313 318 301 294 310 307 261 264 296 281 283 253 291 321 279 340 15 27 278 253 297 144 186 145 155 161 182 175 171 189 199 91 88 86 97 121 121 114 112
326 326 327 330 328 328 331 329 323 320 315 317 323 308 299 306 309 295 288 302 301 277 284 276 298 219 257 257 244 278 220 342 152 322 332 60 120 228 169 155 144 155 204 203 167 155 137 127 114 108 113 111 108 110
325 328 327 328 326 323 326 322 322 322 319 316 315 308 295 293 299 293 289 287 283 281 279 236 346 170 296 275 234 223 274 207 137 263 298 323 152 323 136 43 240 139 170 138 8 127 131 142 135 121 115 115 115 108
331 329 326 324 324 323 326 322 318 318 314 315 311 301 288 289 298 275 273 286 266 184 300 303 316 23 27 147 152 180 168 143 201 215 229 155 80 243 124 306 241 192 148 162 199 200 195 179 161 143 139 137 130 119
329 333 333 333 326 324 321 320 320 323 317 315 326 315 292 294 295 280 295 241 239 232 276 300 320 26 117 117 114 117 126 141 150 267 60 113 54 262 234 258 260 224 199 157 213 143 127 135 147 147 140 137 132 127
331 329 328 328 328 324 321 321 324 323 318 318 310 315 295 290 275 248 236 339 212 197 243 267 168 135 147 132 114 103 100 74 57 76 353 343 163 232 235 227 139 194 192 193 173 140 128 140 141 141 138 134 127 125
329 325 328 327 328 329 326 324 323 326 329 331 318 305 301 291 256 263 269 229 109 180 234 249 125 176 156 97 98 70 67 50 7 354 176 209 162 229 253 219 179 123 149 168 168 181 153 142 140 139 137 135 131 130
326 327 328 325 327 326 328 325 324 321 326 314 316 310 291 252 227 247 184 172 126 176 277 262 274 124 132 86 102 79 101 157 130 179 225 240 224 227 244 203 197 189 157 149 140 129 137 141 139 140 140 144 142 138
328 328 330 329 327 325 323 313 320 320 329 316 315 311 255 189 179 135 124 122 118 175 190 284 326 91 112 135 112 136 229 279 204 199 175 231 244 254 232 186 157 175 156 148 139 143 142 142 142 141 141 142 141 139
328 333 336 341 341 332 327 336 329 335 331 356 338 333 59 144 128 86 99 186 135 193 195 187 291 123 85 89 99 96 212 178 255 144 237 229 246 168 200 191 169 168 156 156 148 146 148 146 143 139 136 133 127 121
333 337 345 352 345 343 347 336 324 329 334 347 326 334 121 91 88 214 115 125 232 74 146 168 120 85 111 120 118 196 243 214 282 116 265 244 195 80 171 168 163 158 149 145 142 138 137 136 136 135 132 127 122 115
333 341 343 353 343 348 348 353 352 359 339 332 353 11 322 42 195 243 169 147 210 170 162 157 114 134 144 172 81 246 234 287 173 226 237 235 75 143 148 139 135 140 138 135 134 131 131 130 130 131 128 123 118 109
331 339 346 357 350 359 2 353 0 2 356 350 343 331 318 169 244 325 55 46 79 119 146 149 123 192 84 155 121 227 182 264 249 231 200 96 129 136 141 139 139 139 139 135 131 134 132 131 129 128 124 120 115 104
328 325 350 2 359 350 355 347 342 348 331 335 331 318 263 322 298 279 273 212 96 135 131 124 103 70 123 172 232 276 220 238 220 286 59 97 135 145 140 137 131 123 131 135 138 137 135 134 133 128 124 118 110 103
329 317 354 350 349 357 345 338 343 338 327 301 295 296 323 285 234 212 137 120 141 146 123 106 102 214 184 212 210 214 241 240 52 353 15 146 140 130 132 137 138 139 142 142 140 139 138 136 137 132 124 114 106 105
333 310 318 337 329 342 339 340 328 321 306 305 329 304 290 283 297 328 72 123 155 149 144 173 220 193 114 215 219 217 253 33 354 326 169 153 142 135 137 133 135 137 138 135 133 132 135 139 136 130 123 115 105 105
313 313 307 320 332 333 342 354 340 316 306 300 309 311 320 268 303 98 119 145 154 202 212 241 150 203 237 247 220 332 320 329 83 158 141 141 131 137 138 134 135 137 136 134 136 136 136 137 135 134 129 122 110 108
321 324 300 321 329 335 324 328 354 321 307 336 327 343 338 322 11 66 108 167 151 215 247 241 252 259 323 321 273 270 279 139 132 131 133 129 138 144 141 136 137 140 141 141 140 141 142 141 142 139 136 127 122 121
314 336 334 320 332 318 306 286 327 305 309 334 319 332 322 312 207 112 148 178 200 216 239 238 250 338 357 313 311 314 123 140 137 132 137 135 143 146 143 141 139 140 140 140 143 142 140 137 137 137 139 133 120 113
277 316 261 336 314 287 285 307 273 279 312 305 312 318 296 307 231 172 209 236 251 246 241 254 302 337 311 345 90 113 136 148 146 146 143 141 141 142 144 145 140 142 142 143 143 147 145 147 146 143 128 128 122 121
322 3 344 331 292 278 269 257 271 300 266 283 302 272 260 314 334 30 34 232 250 253 323 326 338 356 17 97 125 125 141 152 135 147 144 143 139 144 146 150 149 147 144 145 149 148 148 146 146 145 144 135 122 119
338 335 301 295 284 261 266 270 267 252 261 252 231 261 152 258 293 297 243 221 279 9 346 314 351 1 54 126 134 127 132 142 146 150 148 148 145 146 149 151 152 149 144 143 149 149 148 156 150 149 148 138 137 122
338 290 270 252 239 278 291 259 244 258 272 264 253 266 325 343 312 267 293 267 10 321 319 264 173 278 105 138 144 142 143 145 144 149 152 151 147 148 149 150 153 155 155 148 149 151 147 153 159 150 151 148 145 142
278 230 233 248 230 242 252 231 278 252 265 275 269 200 178 197 278 251 288 40 331 321 311 217 182 163 126 141 148 156 156 157 158 155 157 157 152 150 151 150 149 155 156 154 154 153 156 156 159 160 158 157 158 154
268 202 212 252 204 233 261 272 250 301 287 274 259 337 62 259 250 298 65 352 347 341 319 184 167 165 183 149 156 159 164 163 162 159 159 162 162 163 165 165 166 171 169 165 162 161 161 164 165 162 165 176 178 159
277 259 230 238 262 266 269 253 241 258 257 264 335 275 227 231 274 61 1 357 352 4 94 122 116 160 181 160 157 155 154 155 158 160 154 154 158 165 173 179 183 184 172 168 161 164 167 167 167 167 169 171 174 179
268 276 268 348 284 277 281 287 260 258 323 329 299 344 327 335 352 351 315 317 346 38 171 158 54 99 163 167 161 162 160 159 157 159 162 166 175 180 178 167 170 176 173 169 165 162 163 166 169 172 174 175 182 183
254 263 273 262 238 234 223 210 209 205 221 196 244 233 283 232 295 306 312 272 300 200 170 199 217 46 159 174 168 168 172 168 165 169 174 176 177 171 170 168 168 169 174 178 176 170 164 163 164 166 167 171 178 175
258 215 262 254 239 234 217 251 310 269 250 270 285 286 289 292 291 288 268 261 246 243 219 176 201 189 142 169 176 180 182 178 184 190 188 182 180 182 178 178 179 179 181 187 192 189 188 192 188 183 170 164 172 180
271 252 248 238 268 304 298 291 285 280 276 268 264 273 290 301 303 288 248 234 225 220 207 191 190 203 201 186 184 179 180 187 186 182 173 173 185 185 186 186 186 184 186 191 194 190 183 169 168 172 174 181 190 183
226 229 254 249 255 266 301 280 271 270 274 278 277 268 284 296 307 275 274 215 215 216 216 213 214 227 217 203 194 186 184 177 168 160 163 180 200 195 194 189 186 185 188 187 178 174 169 172 177 182 179 182 193 190
263 264 260 270 272 285 247 262 266 277 269 269 265 273 280 293 267 281 302 213 231 229 239 251 240 221 227 203 188 176 171 163 156 167 186 212 214 199 190 186 185 187 186 180 172 169 173 184 193 198 204 208 217 226